Back to catalog

LEOPARDSat-1

AliveScienceVLEO
NORAD 69798·PAYLOAD·🇺🇸 United States

Launched Nov 20, 1998 from Baikonur Cosmodrome

Loading…

Next Passes (next 24 hours)

TLE

FreshSource: Space-Track

Epoch: Sep 14, 2026, 06:51 UTC

1 69798U 98067YN  26257.28598159  .00027740  00000-0  43279-3 0  9996
2 69798  51.6305 217.7896 0009158 157.5703 202.5689 15.53575221 11484

Track LEOPARDSat-1 in real time with AllMySat

Download on the App Store